Weather Roundup
Issued by NWS

Home | Current Version | Previous Version | Graphics & Text | Print | Product List | Glossary Off
Versions: 1 2 3 4 5 6 7 8 9 10 11 12 13 14 15 16 17 18 19 20 21 22 23 24 25 26 27 28 29 30 31 32 33 34 35 36 37 38 39 40 41 42 43 44 45 46 47 48 49 50

000
NZUS93 KARX 302259
HRRWXR

CURRENT HOURLY OBSERVATIONS ACROSS
MUCH OF THE UPPER MISSISSIPPI VALLEY
NATIONAL WEATHER SERVICE LA CROSSE WI
600 PM CDT THU JUL 30 2015


...SOUTHEAST MINNESOTA...


CITY           SKY/WX    TMP DP  RH WIND       PRES   REMARKS
ROCHESTER      SUNNY     80  61  52 W10       30.08S
ROCHESTER/MAYO FAIR      82  55  39 W12G22    30.06S
WINONA         SUNNY     82  55  39 W10       30.02S
AUSTIN         SUNNY     82  55  39 W9        30.08S
ALBERT LEA     SUNNY     82  55  39 W7        30.09S
DODGE CENTER   SUNNY     81  57  44 W10       30.08S
PRESTON        SUNNY     79  57  46 NW8G16    30.08S
OWATONNA       SUNNY     81  59  47 W8        30.07F
FARIBAULT      SUNNY     81  61  50 W10       30.06F
$$

...ELSEWHERE IN MINNESOTA...


CITY           SKY/WX    TMP DP  RH WIND       PRES   REMARKS
MINNEAPOLIS    MOSUNNY   84  54  35 W18G24    30.02S
INTNL FALLS    MOSUNNY   78  53  41 W12G28    29.88R
DULUTH         MOSUNNY   80  53  39 W16G28    29.93S
RED WING       SUNNY     84  55  37 W14G23    30.01S
REDWOOD FALLS  SUNNY     85  56  37 W10       30.06F
MANKATO        SUNNY     82  55  39 W8        30.06F
WORTHINGTON    SUNNY     82  63  51 W9        30.12S
FAIRMONT       SUNNY     84  57  39 W8        30.09F
$$

...SOUTHWEST WISCONSIN...


CITY           SKY/WX    TMP DP  RH WIND       PRES   REMARKS
LA CROSSE      SUNNY     85  56  37 W15       30.01F
PRAIRIE DU CHI SUNNY     86  51  29 W13G20    30.03S
BOSCOBEL       SUNNY     86  56  35 W9G17     30.03S
LONE ROCK      NOT AVBL
PLATTEVILLE    SUNNY     84  56  38 W13G21    30.04F
FORT MC COY    SUNNY     84  50  31 W13       30.02S
VIROQUA        FAIR      81  54  39 W9        30.05F
WIS DELLS      SUNNY     84  47  26 NW15G24   30.00F
$$

...ELSEWHERE IN WISCONSIN...


CITY           SKY/WX    TMP DP  RH WIND       PRES   REMARKS
MILWAUKEE      MOSUNNY   87  49  26 W20G31    29.97F
MADISON        MOSUNNY   85  54  34 NW8       30.00S
GREEN BAY      MOSUNNY   81  58  45 W10       29.93S
EAU CLAIRE     NOT AVBL
BLACK RVR FLS  FAIR      84  51  32 W12G17    30.00S
MEDFORD        PTSUNNY   78  58  50 W15G21    29.99R
WAUSAU         PTSUNNY   80  54  40 W20G26    29.95F
WIS RAPIDS     SUNNY     84  50  30 W15G22    29.99S
MARSHFIELD     MOSUNNY   79  52  38 W13G21    29.99S
RICE LAKE      MOSUNNY   79  56  45 W10G18    30.00F
$$

...NORTHEAST IOWA...


CITY           SKY/WX    TMP DP  RH WIND       PRES   REMARKS
DECORAH        SUNNY     81  57  44 W6G15     30.06F
MASON CITY     SUNNY     84  62  47 W9        30.11S
CHARLES CITY   SUNNY     81  66  61 NW5       30.09S
OELWEIN        SUNNY     82  64  54 NW8       30.09S
$$

...ELSEWHERE IN IOWA...


CITY           SKY/WX    TMP DP  RH WIND       PRES   REMARKS
DES MOINES     MOSUNNY   87  56  34 W13       30.11S
IOWA CITY      SUNNY     85  65  51 W14       30.08F
FORT DODGE     SUNNY     84  66  54 W7        30.11F
$$

...NORTHERN ILLINOIS...


CITY           SKY/WX    TMP DP  RH WIND       PRES   REMARKS
CHICAGO-OHARE  MOSUNNY   86  53  32 NW16G26   30.00F
CHICAGO-MIDWAY MOSUNNY   88  52  29 W17G23    30.00F
MOLINE         SUNNY     87  64  46 W12       30.05F
ROCKFORD       SUNNY     85  60  42 W10       30.03F
PEORIA         SUNNY     88  63  43 W12       30.07F
$$

NOTE: "FAIR" INDICATES FEW OR NO CLOUDS BELOW 12,000 FEET WITH NO
SIGNIFICANT WEATHER AND/OR OBSTRUCTIONS TO VISIBILITY. WIND
SPEEDS ARE IN MILES-PER-HOUR.



USA.gov is the U.S. government's official web portal to all federal, state and local government web resources and services.